Tracking 30258 objects as of 19-Feb-2025
HD Live streaming from Space Station
objects crossing your sky now

GALAXY 35

Track GALAXY 35 now!
GALAXY 35 is classified as:


NORAD ID: 54741
Int'l Code: 2022-170A
Perigee: 35,785.6 km
Apogee: 35,802.0 km
Inclination: 0.0 °
Period: 1,436.1 minutes
Semi major axis: 42164 km
RCS: Unknown
Launch date: December 13, 2022
Source: United States (US)
Launch site: FRENCH GUIANA (FRGUI)
Your satellite tracking list
Your tracking list is empty




NASA's NSSDC Master Catalog

Two Line Element Set (TLE):
1 54741U 22170A   25050.52420751 -.00000151  00000-0  00000-0 0  9999
2 54741   0.0112 191.2304 0001950 146.3889 267.6852  1.00271622  8051
Source of the keplerian elements: AFSPC